Regional Weather Roundup
Issued by NWS

Home | Current Version | Previous Version | Text Only | Print | Product List | Glossary Off
Versions: 1 2 3 4 5 6 7 8 9 10 11 12 13 14 15 16 17 18 19 20 21 22 23 24 25 26 27 28 29 30 31 32 33 34 35 36 37 38 39 40 41 42 43 44 45 46 47 48 49 50

000
ASUS43 KIND 250009
RWRIN

WEATHER ROUNDUP FOR INDIANA
NATIONAL WEATHER SERVICE INDIANAPOLIS IN
800 PM EDT SUN MAY 24 2015

NOTE: "FAIR" INDICATES FEW OR NO CLOUDS BELOW 12,000 FEET WITH NO
SIGNIFICANT WEATHER AND/OR OBSTRUCTIONS TO VISIBILITY.

* - STATION DOES NOT REPORT WEATHER SUCH AS PRECIPITATION OR FOG.

+ - STATION NOT QUALITY CONTROLLED BY THE NATIONAL WEATHER SERVICE.
    USE DATA WITH CAUTION...ESPECIALLY DEWPOINT AND RELATIVE
    HUMIDITY OBSERVATIONS.

INZ001>003-010>013-019-020-250100-
NORTHWEST INDIANA

CITY           SKY/WX    TMP DP  RH WIND       PRES   REMARKS
GARY /AIRPORT/ PTSUNNY   68  63  83 E5        29.96F
KNOX *+        PTSUNNY   81  54  39 S16G22    29.98S
LA PORTE +     CLOUDY    82  57  42 S8        29.98F
6HR MIN TEMP:  79; 6HR MAX TEMP:  84;

MICHIGAN CITY+ CLOUDY    79  54  41 S10G18    29.97S
MONTICELLO +   MOSUNNY   79  60  51 S12G20    29.99F
6HR MIN TEMP:  79; 6HR MAX TEMP:  83;

RENSSELAER +   MOSUNNY   81  59  47 S23G29    29.98S
VALPARAISO     CLOUDY    81  58  45 S16G25    29.97F
6HR MIN TEMP:  78; 6HR MAX TEMP:  83;


$$

LMZ046-743>745-250100-
SOUTHERN LAKE MICHIGAN

STATION/POSITION TIME  TEMP    WIND        PRES    WAVE
                       AIR SEA DIR/SP/G            HT
                 (UTC) (F)     (DEG/KT/KT) (MB)    (FT)
BURNS HARBOR     0000   68     110/  1/  6 1014.9S
MICHIGAN CITY    0000   81     160/ 11/ 15   N/A
5NW MICH CITY    0000   62 55  350/  6/  8   N/A     0

$$

INZ004-005-014>016-021>024-250100-
NORTH CENTRAL INDIANA

CITY           SKY/WX    TMP DP  RH WIND       PRES   REMARKS
GOSHEN         PTSUNNY   79  55  43 S12G21    30.02S
6HR MIN TEMP:  76; 6HR MAX TEMP:  82;

LOGANSPORT +   MOSUNNY   81  46  30 S14G20    30.02F
PERU/GRISSOM   MOSUNNY   81  56  42 S14       30.01F
6HR MIN TEMP:  81; 6HR MAX TEMP:  85;

ROCHESTER +    MOSUNNY   82  54  36 S9G16     30.02F
SOUTH BEND     PTSUNNY   81  53  37 S13G23    29.99F
6HR MIN TEMP:  76; 6HR MAX TEMP:  84;

WARSAW +       MOSUNNY   79  54  41 S7        30.03S

$$

INZ006>009-017-018-025>027-250100-
NORTHEAST INDIANA

CITY           SKY/WX    TMP DP  RH WIND       PRES   REMARKS
ANGOLA *+      MOCLDY    81  55  41 S13       30.06F
AUBURN +       PTCLDY    79  50  36 CALM      30.05F
FORT WAYNE     MOCLDY    79  55  43 S13G22    30.06F
6HR MIN TEMP:  78; 6HR MAX TEMP:  83; 6HR PCP: TRACE;

HUNTINGTON +   PTCLDY    79  52  39 S10       30.04F
6HR MIN TEMP:  78; 6HR MAX TEMP:  83;


$$

INZ028-029-035-036-043>045-051>053-250100-
WEST CENTRAL INDIANA

CITY           SKY/WX    TMP DP  RH WIND       PRES   REMARKS
CRAWFORDSVL +  SUNNY     78  52  40 S17G23    30.03R
6HR MIN TEMP:  78; 6HR MAX TEMP:  83;

GREENCASTLE +  SUNNY     77  57  50 S17G23    30.04S
LAFAYETTE      SUNNY     79  59  50 S12G21    30.00R
6HR MIN TEMP:  79; 6HR MAX TEMP:  82;

TERRE HAUTE    SUNNY     79  62  56 S16G22    30.01S
6HR MIN TEMP:  79; 6HR MAX TEMP:  83;


$$

INZ030>032-037>040-046>048-054>057-064-065-250100-
CENTRAL INDIANA

CITY           SKY/WX    TMP DP  RH WIND       PRES   REMARKS
CP ATTERBURY + PTCLDY    79  55  44 S9        30.07F
COLUMBUS       PTCLDY    79  50  36 S13G18    30.07S
FRANKFORT +    SUNNY     82  58  44 SE9G20    30.04F
6HR MIN TEMP:  82; 6HR MAX TEMP:  86;

GREENWOOD *+   PTCLDY    81  52  36 S16       30.07S
INDIANAPOLIS   MOCLDY    80  57  45 S18       30.03F
6HR MIN TEMP:  80; 6HR MAX TEMP:  85;

-EAGLE CREEK   PTCLDY    80  57  45 S8        30.04S
6HR MIN TEMP:  80; 6HR MAX TEMP:  84;

KOKOMO *+      CLOUDY    81  55  41 S20       30.03F
6HR MIN TEMP:  81; 6HR MAX TEMP:  84;

MARION +       PTCLDY    80  49  33 S17       30.06R
MT COMFORT *+  PTCLDY    81  36  19 S13G20    30.07S
SHELBYVILLE    PTCLDY    83  55  38 S18G26    30.06S
6HR MIN TEMP:  83; 6HR MAX TEMP:  87;

ZIONSVILLE +   PTCLDY    82  53  36 S17       30.05F
6HR MIN TEMP:  82; 6HR MAX TEMP:  86;


$$

INZ033-034-041-042-049-050-058-059-250100-
EAST CENTRAL INDIANA

CITY           SKY/WX    TMP DP  RH WIND       PRES   REMARKS
MUNCIE         PTCLDY    82  51  34 S14G22    30.07S
6HR MIN TEMP:  81; 6HR MAX TEMP:  85;


$$

INZ060-061-067>069-081>083-085>088-250100-
SOUTHWEST INDIANA

CITY           SKY/WX    TMP DP  RH WIND       PRES   REMARKS
EVANSVILLE     PTSUNNY   81  63  54 SE12G20   30.02F
6HR MIN TEMP:  81; 6HR MAX TEMP:  84;

HUNTINGBURG *+ PTCLDY    81  61  50 SE12      30.05S
6HR MIN TEMP:  81; 6HR MAX TEMP:  82;

WASHINGTON +   MOSUNNY   80  57  46 SE13      30.03S
6HR MIN TEMP:  80; 6HR MAX TEMP:  84;


$$

INZ062-063-066-070>080-084-089>092-250100-
SOUTH CENTRAL AND SOUTHEAST INDIANA

CITY           SKY/WX    TMP DP  RH WIND       PRES   REMARKS
BLOOMINGTON    PTCLDY    79  61  53 S9G21     30.06S
6HR MIN TEMP:  79; 6HR MAX TEMP:  84;

MADISON *+     CLEAR     81  50  34 SE9       30.12S
NORTH VERNON + PTCLDY    81  54  39 S6        30.10S
SEYMOUR +      PTCLDY    82  57  42 S13       30.08R

$$



USA.gov is the U.S. government's official web portal to all federal, state and local government web resources and services.